Location: Newark
(42.7133°N, 87.7910°W)
Time: 17:39:15
(UTC+00:00)

A-11 Canister half - Pass Details

Date: 24 September 2019
Orbit: 1527 x 1682 km, 47.3° (Epoch: 22 October)

Event Time Altitude Azimuth Distance (km) Brightness Sun altitude
Exits shadow 08:55:32 55° 209° (SSW) 1,814 9.0 -29.7°
Maximum altitude 08:57:50 72° 148° (SSE) 1,620 9.0 -29.4°
Drops below altitude 10° 09:07:21 10° 67° (ENE) 3,796 12.0 -27.9°
Sets 09:10:30 0° 65° (ENE) 4,804 12.9 -27.3°
